Wind_Speed
23 24 27 28 29 29 30 30 31 31 31 31 32 33 34 36 33 31 29 25 24 28 28 27 26 30 34 38 42 37 40 50 56 40 47 39 26 25 37 35 29 29 23 27 30
25 26 28 30 31 30 31 32 31 31 31 31 33 33 34 34 34 20 20 23 24 26 26 28 24 25 30 38 41 42 45 51 43 27 38 37 35 25 24 31 35 36 29 27 31
25 27 30 31 32 32 32 31 32 31 32 33 33 34 33 32 31 20 25 25 27 27 28 28 28 27 26 31 40 46 57 39 40 23 28 36 36 34 29 28 37 45 41 34 35
26 29 30 32 33 33 33 32 34 34 34 35 35 35 33 34 21 29 32 35 35 34 30 27 26 25 26 29 35 44 52 54 43 24 30 32 33 37 31 27 29 34 37 40 38
28 30 32 33 34 34 35 34 36 35 36 36 37 35 33 31 24 28 37 40 39 36 32 28 26 22 26 26 25 37 48 47 52 43 32 36 37 29 35 31 31 31 40 39 38
29 31 33 35 36 37 36 36 37 36 38 37 37 35 27 26 26 36 43 43 40 36 31 26 27 22 30 28 27 30 28 33 47 50 37 39 38 28 41 34 32 30 35 36 38
29 31 34 35 36 39 36 37 37 37 36 37 35 30 28 22 36 42 45 42 37 34 36 27 25 25 23 28 23 31 37 42 33 48 49 40 47 45 38 36 39 39 29 35 39
29 31 34 36 36 38 36 37 36 36 35 34 31 26 23 29 41 48 48 40 32 33 30 27 20 21 20 25 25 21 25 30 39 36 51 44 48 45 33 40 41 36 35 29 35
29 31 34 36 37 35 36 36 36 35 34 31 18 24 21 39 45 51 46 42 45 31 23 21 16 13 13 13 17 14 26 29 19 33 39 46 45 49 30 45 40 34 34 32 29
29 30 33 34 37 34 35 36 36 34 33 27 15 22 38 46 51 49 42 44 33 28 19 10 4 5 10 12 12 9 11 16 23 18 33 43 41 32 35 33 46 41 35 39 31
29 30 32 33 35 34 33 34 36 37 35 19 16 37 41 46 42 42 48 39 24 17 20 15 11 21 17 12 11 12 14 16 17 15 17 46 35 39 23 33 30 39 36 42 33
29 30 32 32 31 33 34 34 33 29 25 11 30 38 40 46 39 43 46 38 30 25 12 9 24 18 12 14 11 9 12 13 27 20 15 20 32 36 36 34 24 27 39 37 41
29 30 31 33 31 32 34 34 32 30 9 13 35 38 47 41 19 45 44 40 23 22 16 11 22 22 18 16 20 10 5 7 11 19 24 23 22 37 35 29 34 29 37 40 43
28 29 31 34 32 34 33 33 28 27 5 27 31 28 42 40 27 33 40 37 21 21 18 8 20 19 21 16 22 20 8 15 12 11 5 5 5 42 42 30 36 34 36 48 41
28 29 30 32 31 31 33 32 22 18 5 32 30 35 30 31 36 31 36 34 17 18 17 11 17 23 24 32 16 11 13 13 16 11 12 9 4 18 43 36 37 42 37 48 48
27 28 29 29 29 32 32 30 13 11 5 19 29 34 28 32 27 28 34 30 11 20 14 11 18 28 25 30 11 22 18 12 10 9 7 9 15 17 10 11 26 38 42 46 49
26 27 28 27 28 30 30 26 5 10 23 20 36 29 22 35 26 30 33 32 35 28 31 18 16 31 32 33 6 17 15 5 2 4 5 18 9 13 12 5 15 26 38 45 48
25 26 27 23 27 30 28 22 12 19 21 30 30 24 18 36 25 26 27 25 29 30 15 18 12 32 32 29 28 19 12 5 4 2 2 1 6 8 16 10 3 14 30 41 45
23 23 25 23 25 27 26 21 10 17 23 29 26 20 17 29 21 21 23 19 22 31 21 12 13 17 26 20 28 17 21 9 5 8 4 6 10 6 16 7 2 9 18 36 41
22 21 23 21 25 26 26 21 16 20 22 23 21 17 22 32 27 19 20 14 22 30 19 15 12 11 23 14 23 24 22 4 5 5 3 6 7 12 21 17 11 1 11 26 38
21 20 22 20 22 25 27 20 19 22 22 21 21 21 21 27 22 13 16 10 25 31 19 16 10 17 17 16 22 30 32 12 8 5 3 2 3 10 10 13 12 8 1 14 29
20 18 23 21 19 26 23 22 21 21 21 22 21 21 21 25 14 8 15 18 25 19 22 19 8 17 11 8 18 20 25 27 4 6 7 3 2 4 9 11 12 10 6 1 18
18 17 20 21 20 23 21 21 20 21 19 22 20 23 24 17 10 10 16 23 19 14 21 21 8 11 8 6 16 14 22 24 10 4 6 3 4 1 7 9 8 8 8 5 5
18 15 17 19 19 22 22 21 22 21 17 21 20 23 25 21 16 11 22 19 15 11 18 14 10 6 6 16 17 14 17 21 19 3 10 3 6 7 9 9 9 8 7 8 4
16 14 17 17 16 20 21 20 21 20 17 18 17 21 23 22 19 18 21 20 12 14 17 16 9 14 19 16 16 10 13 18 18 8 3 5 8 13 14 11 9 9 7 5 7
13 15 18 18 15 19 21 21 20 21 18 19 17 17 20 22 20 22 19 19 14 16 19 22 16 19 12 10 7 8 12 14 15 8 7 8 9 10 12 11 11 10 8 8 6
12 13 17 18 14 17 19 21 20 21 20 18 18 16 16 19 18 17 14 13 14 17 20 23 22 16 6 17 13 5 8 12 11 7 10 9 10 11 11 12 11 11 11 9 8
Wind_Direction
7 4 3 1 358 354 352 348 344 341 337 335 333 332 331 329 330 325 318 317 312 303 297 291 281 264 250 243 232 222 227 240 239 240 238 239 228 219 219 227 220 214 211 217 227
3 2 2 1 357 355 352 347 345 342 340 338 337 336 335 334 337 330 334 325 317 312 307 301 290 276 255 242 229 220 225 240 238 245 247 237 226 208 221 224 230 225 211 217 222
2 2 1 360 356 354 352 348 347 348 346 344 343 343 342 341 341 335 337 330 324 321 315 308 300 288 272 248 237 230 229 238 244 239 238 234 231 215 221 213 228 228 229 228 231
1 1 360 358 355 354 351 352 352 350 346 345 345 344 346 342 352 336 340 335 329 324 319 308 297 286 279 262 246 241 236 231 236 222 238 224 228 222 234 234 233 221 222 224 224
359 359 358 356 354 353 353 353 352 348 345 344 344 345 344 343 336 333 335 333 326 320 316 311 298 283 271 263 257 242 243 239 238 237 218 217 221 227 220 212 196 215 215 214 220
358 357 356 355 353 353 352 351 350 347 344 343 342 342 344 341 337 331 328 326 319 315 313 310 296 281 267 265 249 253 248 249 238 232 223 232 225 223 214 203 197 199 214 214 217
357 356 355 354 355 352 350 350 349 345 343 341 341 343 344 345 331 327 327 325 320 318 310 307 287 276 271 267 263 249 257 246 239 227 224 240 236 224 215 198 196 199 201 219 220
356 355 354 354 354 351 349 348 346 343 340 341 344 349 348 336 331 323 325 324 320 319 306 295 279 273 273 266 254 260 256 263 243 223 226 233 239 227 224 202 197 195 196 211 215
356 355 354 354 352 350 348 345 342 340 339 347 351 352 349 333 321 327 336 331 326 320 307 289 276 273 298 260 279 271 266 257 277 226 227 233 238 229 223 214 203 198 200 206 211
356 355 354 354 350 350 348 344 338 340 346 348 13 353 334 336 332 332 337 335 334 327 328 291 233 226 244 254 269 306 291 268 260 254 231 237 238 227 226 227 216 215 208 203 212
355 355 354 354 351 350 348 343 340 341 346 3 8 342 338 338 336 335 341 345 350 352 16 41 57 21 3 340 314 300 288 284 246 240 244 229 241 230 203 209 217 215 206 208 211
354 355 354 353 353 350 347 344 347 343 347 15 348 343 338 345 331 340 348 359 0 16 20 53 23 359 353 348 329 315 322 317 270 270 281 249 237 234 223 218 222 209 199 201 208
352 354 354 353 353 350 350 349 349 343 2 17 348 345 345 345 346 348 351 1 11 14 33 29 355 344 347 345 341 314 317 313 308 281 262 274 250 217 221 227 211 215 206 198 202
352 354 353 354 352 354 351 352 351 341 11 357 349 347 342 347 352 348 348 354 11 7 14 3 334 350 355 351 345 328 279 283 291 325 296 257 296 212 202 214 213 214 213 208 202
351 354 354 355 355 352 353 353 356 351 36 343 336 342 343 354 340 355 344 357 13 24 7 18 5 8 4 353 333 313 314 296 262 290 311 271 283 203 205 205 204 208 217 209 212
352 353 354 355 354 356 358 353 12 7 333 336 333 338 348 345 360 352 353 358 11 22 36 11 359 5 356 360 315 319 316 292 239 251 230 219 210 33 174 219 195 197 203 208 213
351 353 355 355 355 359 1 1 6 48 341 336 341 344 349 340 2 3 355 8 22 3 2 12 27 3 357 3 21 358 5 356 88 177 226 204 188 49 358 336 201 187 193 205 209
351 353 355 353 358 4 2 15 47 344 347 346 344 350 338 348 1 0 355 6 9 8 358 349 338 352 360 5 350 358 27 63 304 355 260 280 79 26 12 344 269 197 185 198 207
351 352 354 356 1 5 5 29 24 2 348 346 356 350 348 350 355 0 358 358 3 6 7 340 321 359 357 1 7 4 1 330 270 278 274 71 109 237 10 4 347 197 176 194 199
350 354 355 358 3 3 6 33 19 9 0 357 358 349 339 344 355 10 360 342 343 352 352 338 310 7 350 345 17 25 20 23 347 351 33 81 56 14 354 359 359 187 169 180 194
349 353 359 1 4 3 21 25 13 7 4 3 357 352 345 344 348 2 348 342 337 344 1 357 334 333 3 23 16 15 22 9 318 323 320 66 84 34 26 350 349 2 34 162 190
349 352 355 3 3 11 18 16 10 6 4 3 3 358 348 348 339 335 348 332 331 349 358 354 316 325 344 32 23 7 9 10 12 337 333 346 45 332 325 339 356 347 351 201 182
350 353 357 0 3 11 12 14 10 5 4 2 2 7 358 355 342 331 320 327 330 6 2 337 323 326 345 336 347 358 349 359 357 358 4 304 174 235 333 318 326 360 348 332 189
348 353 356 356 3 9 9 10 7 4 2 1 2 3 359 4 4 318 334 346 351 354 350 343 338 309 298 305 318 330 327 347 3 357 327 351 304 269 290 322 340 350 334 332 304
345 350 357 352 2 7 8 9 7 1 0 2 359 360 1 359 0 345 352 360 358 360 2 358 341 325 307 296 292 318 304 329 354 357 348 335 316 311 325 331 328 327 326 321 307
338 349 354 354 358 4 6 10 7 4 360 356 355 357 5 2 355 347 350 357 355 3 14 9 343 342 16 25 322 278 284 318 333 354 309 309 305 330 324 316 311 309 312 305 287
333 346 351 352 350 0 5 7 4 2 2 355 350 349 357 0 3 359 350 345 355 4 6 5 357 346 306 332 313 248 277 322 323 333 351 333 318 303 298 302 298 291 297 294 282
Height
3142 3138 3133 3129 3125 3122 3119 3115 3112 3107 3103 3098 3094 3089 3084 3080 3080 3075 3072 3068 3065 3061 3060 3060 3059 3058 3059 3061 3062 3063 3062 3046 3050 3058 3064 3076 3081 3087 3092 3094 3100 3102 3102 3108 3111
3141 3137 3132 3128 3124 3120 3117 3113 3109 3105 3101 3096 3091 3086 3080 3075 3072 3068 3067 3064 3060 3057 3055 3051 3052 3049 3048 3048 3051 3051 3048 3041 3052 3057 3063 3071 3076 3082 3084 3086 3090 3093 3096 3100 3105
3140 3136 3131 3127 3123 3119 3114 3110 3106 3102 3097 3091 3085 3080 3075 3070 3067 3064 3063 3060 3056 3052 3048 3045 3043 3041 3040 3040 3040 3039 3032 3043 3049 3051 3058 3062 3067 3074 3075 3075 3081 3085 3089 3095 3099
3139 3134 3130 3125 3121 3116 3112 3107 3102 3097 3092 3086 3081 3076 3070 3066 3067 3059 3057 3053 3049 3045 3043 3039 3037 3034 3032 3030 3032 3030 3030 3034 3037 3043 3050 3053 3057 3059 3066 3072 3079 3081 3084 3088 3090
3137 3133 3128 3124 3119 3113 3108 3103 3099 3094 3088 3082 3076 3071 3067 3064 3062 3058 3055 3049 3045 3040 3036 3032 3029 3026 3024 3022 3022 3020 3021 3025 3029 3034 3039 3044 3045 3051 3054 3066 3069 3073 3076 3080 3085
3135 3131 3126 3121 3116 3110 3105 3100 3095 3090 3084 3078 3073 3069 3065 3064 3058 3054 3050 3045 3038 3033 3030 3026 3021 3019 3014 3015 3015 3014 3012 3013 3019 3026 3032 3034 3036 3041 3045 3057 3062 3065 3069 3074 3079
3133 3129 3124 3119 3113 3108 3102 3097 3093 3087 3082 3075 3070 3064 3062 3060 3054 3050 3045 3038 3030 3024 3019 3019 3014 3010 3010 3007 3009 3008 3005 3005 3008 3018 3021 3027 3024 3025 3035 3046 3053 3058 3063 3067 3074
3132 3127 3122 3117 3111 3106 3100 3095 3091 3085 3079 3073 3067 3063 3060 3057 3049 3044 3038 3030 3025 3020 3013 3008 3006 3003 3003 3003 3002 3002 3001 2997 3001 3009 3014 3020 3011 3024 3032 3037 3043 3050 3055 3062 3068
3131 3126 3121 3115 3110 3104 3099 3093 3088 3084 3077 3070 3066 3062 3059 3055 3047 3036 3029 3019 3012 3009 3005 3001 3000 3000 3001 2998 2998 2998 2994 2995 2996 3002 3008 3009 3006 3016 3026 3032 3037 3044 3051 3056 3063
3130 3125 3119 3114 3108 3103 3097 3091 3085 3080 3073 3067 3063 3064 3060 3048 3038 3029 3025 3016 3007 3000 2999 2996 2997 2996 2995 2996 2996 2994 2992 2991 2993 2996 2999 3000 3004 3013 3021 3027 3032 3038 3047 3052 3059
3128 3123 3118 3112 3107 3101 3096 3090 3086 3073 3067 3064 3064 3060 3055 3048 3036 3026 3019 3010 3007 3001 2995 2995 2995 2997 2996 2995 2993 2992 2990 2988 2988 2991 2989 2989 2998 3005 3015 3021 3026 3035 3042 3049 3053
3127 3121 3116 3110 3105 3099 3093 3088 3080 3075 3068 3064 3064 3059 3052 3044 3033 3027 3018 3009 3003 3000 2998 2997 2997 2998 2996 2993 2991 2989 2988 2986 2985 2988 2988 2986 2989 2999 3009 3017 3022 3028 3034 3039 3043
3125 3119 3115 3109 3102 3098 3091 3085 3076 3070 3067 3065 3061 3056 3047 3043 3034 3024 3018 3013 3007 3003 3001 3001 3001 2998 2995 2991 2987 2988 2987 2985 2985 2981 2983 2985 2983 2991 3002 3011 3017 3021 3026 3031 3037
3123 3118 3113 3106 3102 3094 3090 3082 3074 3069 3065 3067 3062 3056 3049 3040 3037 3028 3021 3017 3010 3005 3002 3002 2999 2997 2994 2990 2987 2983 2984 2983 2982 2982 2983 2985 2978 2982 2996 3002 3007 3013 3017 3023 3030
3121 3116 3111 3103 3099 3095 3089 3080 3074 3069 3071 3071 3062 3057 3051 3046 3042 3033 3023 3016 3012 3008 3007 3005 2999 2995 2993 2991 2985 2982 2980 2979 2979 2980 2981 2979 2985 2978 2989 2991 2997 3003 3009 3015 3022
3120 3114 3109 3103 3099 3093 3086 3080 3075 3073 3073 3071 3066 3057 3049 3044 3040 3033 3024 3019 3013 3009 3007 3004 3002 2998 2995 2989 2984 2981 2976 2975 2976 2980 2977 2975 2981 2980 2984 2983 2986 2993 3000 3008 3014
3118 3113 3107 3101 3098 3092 3086 3081 3077 3078 3081 3073 3062 3055 3050 3043 3037 3032 3025 3018 3015 3009 3005 3004 3002 3001 2995 2986 2985 2980 2974 2973 2978 2978 2973 2969 2977 2991 2987 2982 2981 2984 2991 3000 3007
3117 3111 3106 3101 3097 3091 3087 3082 3077 3081 3076 3071 3063 3057 3052 3043 3038 3034 3029 3023 3021 3019 3013 3009 3003 3000 2998 2995 2991 2985 2984 2986 2992 2978 2970 2967 2979 2989 2984 2981 2982 2981 2984 2992 2999
3116 3110 3105 3100 3096 3091 3088 3081 3084 3080 3075 3067 3062 3054 3052 3047 3042 3035 3031 3027 3025 3023 3021 3014 3008 3006 3002 2998 2994 2989 2988 2988 2985 2975 2973 2978 2985 2984 2981 2982 2981 2980 2979 2985 2993
3115 3109 3104 3100 3095 3091 3087 3083 3082 3079 3075 3069 3063 3059 3053 3046 3042 3038 3034 3032 3028 3026 3022 3018 3011 3008 3005 3002 2999 2995 2992 2989 2986 2984 2976 2984 2988 2994 2987 2984 2982 2981 2978 2980 2988
3113 3107 3103 3099 3096 3092 3085 3083 3080 3077 3074 3070 3064 3058 3055 3050 3045 3041 3039 3034 3028 3024 3022 3018 3015 3010 3006 3003 3000 2996 2992 2993 2990 2988 2984 2982 2992 2991 2988 2987 2984 2979 2978 2976 2982
3111 3107 3102 3098 3097 3089 3086 3084 3081 3077 3073 3069 3065 3059 3055 3049 3044 3043 3040 3034 3030 3026 3020 3018 3014 3011 3009 3006 3004 3001 2999 2997 2994 2994 2990 2986 2991 2986 2985 2984 2979 2981 2977 2978 2978
3110 3105 3101 3097 3094 3089 3087 3084 3081 3076 3073 3069 3065 3060 3055 3050 3046 3042 3039 3035 3031 3027 3024 3020 3016 3012 3008 3009 3006 3003 3001 3000 2995 2995 2994 2993 2997 2991 2987 2989 2988 2978 2979 2980 2977
3109 3105 3101 3097 3093 3089 3086 3083 3079 3076 3072 3067 3063 3058 3055 3050 3047 3042 3038 3034 3030 3027 3024 3020 3017 3016 3014 3011 3008 3005 3002 3000 2997 2995 2994 2992 2990 2992 2993 2989 2982 2980 2981 2981 2982
3108 3104 3101 3097 3092 3089 3086 3083 3079 3076 3072 3068 3062 3059 3054 3048 3044 3041 3037 3034 3030 3027 3024 3019 3016 3014 3010 3007 3006 3005 3002 3000 2998 2996 2994 2993 2991 2986 2980 2979 2983 2985 2985 2983 2983
3107 3104 3099 3094 3091 3088 3085 3082 3078 3074 3071 3067 3063 3059 3055 3049 3046 3039 3036 3033 3030 3027 3023 3019 3016 3012 3007 3005 3004 3004 3001 3000 2998 2996 2993 2992 2989 2986 2985 2985 2986 2985 2982 2982 2981
3104 3101 3098 3095 3090 3088 3085 3080 3076 3073 3070 3065 3061 3058 3054 3050 3045 3040 3037 3034 3031 3026 3023 3020 3017 3012 3008 3006 3002 3003 3001 2999 2996 2995 2994 2992 2992 2990 2989 2986 2984 2983 2981 2979 2981